Location: Aranbee
(34.0885°N, 118.2342°W)
Time: 02:44:16
(UTC+00:00)

Explorer 7 - Pass Details

Date: 30 July 2021
Orbit: 484 x 676 km, 50.3° (Epoch: 24 September)

Event Time Altitude Azimuth Distance (km) Brightness Sun altitude
Exits shadow 11:27:13 12° 160° (SSE) 1,546 8.9 -17.9°
Maximum altitude 11:29:04 16° 128° (SE) 1,342 8.9 -17.6°
Drops below altitude 10° 11:31:25 10° 89° (E) 1,683 10.1 -17.2°
Sets 11:34:17 0° 67° (ENE) 2,594 11.8 -16.8°
